• In Deutschland
  • Länderverzeichnis
  • Für 7 Tage
  • Wassertemperatur
  • Satellitenkarten
  • Wetterkarte
  • Widgets
  • user-avatar
    Anmelden

    Stündliche Wetter Sorø

    Heute, 22 Februar, Donnerstag

    Zeit Temperatur Niederschläge Wind Luftdruck Luftfeuchtigkeit
    00:00 -1°C° 0,2 mm 2 m/S 766 mmHg 86%
    01:00 -1°C° 0 mm 2 m/S 766 mmHg 90%
    02:00 -1°C° 0,1 mm 2 m/S 766 mmHg 91%
    03:00 -1°C° 0,1 mm 3 m/S 766 mmHg 92%
    04:00 -1°C° 0,1 mm 3 m/S 765 mmHg 93%
    05:00 -1°C° 0 mm 3 m/S 765 mmHg 93%
    06:00 -2°C° 0 mm 3 m/S 766 mmHg 92%
    07:00 -4°C° 0 mm 3 m/S 766 mmHg 93%
    08:00 -3°C° 0 mm 4 m/S 766 mmHg 89%
    09:00 -3°C° 0 mm 4 m/S 767 mmHg 85%
    10:00 -3°C° 0 mm 4 m/S 767 mmHg 81%
    11:00 -2°C° 0 mm 4 m/S 767 mmHg 76%
    12:00 0°C° 0 mm 3 m/S 767 mmHg 71%
    13:00 -2°C° 0 mm 4 m/S 767 mmHg 68%
    14:00 -2°C° 0 mm 4 m/S 767 mmHg 67%
    15:00 -2°C° 0 mm 4 m/S 767 mmHg 67%
    16:00 -1°C° 0 mm 3 m/S 766 mmHg 66%
    17:00 -2°C° 0 mm 3 m/S 766 mmHg 70%
    18:00 -4°C° 0 mm 3 m/S 766 mmHg 75%
    19:00 -4°C° 0 mm 3 m/S 767 mmHg 79%
    20:00 -5°C° 0 mm 3 m/S 767 mmHg 80%
    21:00 -5°C° 0 mm 3 m/S 767 mmHg 81%
    22:00 -5°C° 0 mm 3 m/S 767 mmHg 81%
    23:00 -5°C° 0 mm 3 m/S 767 mmHg 81%

    Morgen, 23 Februar, Freitag

    Zeit Temperatur Niederschläge Wind Luftdruck Luftfeuchtigkeit
    00:00 -5°C° 0 mm 3 m/S 767 mmHg 81%
    01:00 -5°C° 0 mm 3 m/S 767 mmHg 80%
    02:00 -4°C° 0 mm 2 m/S 767 mmHg 80%
    03:00 -4°C° 0 mm 2 m/S 767 mmHg 80%
    04:00 -4°C° 0 mm 2 m/S 767 mmHg 79%
    05:00 -4°C° 0 mm 2 m/S 767 mmHg 79%
    06:00 -4°C° 0 mm 2 m/S 767 mmHg 79%
    07:00 -4°C° 0 mm 2 m/S 767 mmHg 79%
    08:00 -1°C° 0 mm 1 m/S 767 mmHg 74%
    09:00 0°C° 0 mm 1 m/S 767 mmHg 70%
    10:00 0°C° 0 mm 1 m/S 767 mmHg 65%
    11:00 +1°C° 0 mm 1 m/S 767 mmHg 64%
    12:00 +2°C° 0 mm 1 m/S 767 mmHg 63%
    13:00 +2°C° 0 mm 1 m/S 767 mmHg 63%
    14:00 +1°C° 0 mm 2 m/S 767 mmHg 65%
    15:00 +1°C° 0 mm 2 m/S 767 mmHg 67%
    16:00 +1°C° 0 mm 2 m/S 767 mmHg 69%
    17:00 -1°C° 0 mm 2 m/S 767 mmHg 74%
    18:00 -2°C° 0 mm 3 m/S 767 mmHg 79%
    19:00 -4°C° 0 mm 3 m/S 767 mmHg 84%
    20:00 -4°C° 0 mm 4 m/S 767 mmHg 84%
    21:00 -4°C° 0 mm 4 m/S 768 mmHg 84%
    22:00 -3°C° 0 mm 4 m/S 768 mmHg 84%
    23:00 -4°C° 0 mm 5 m/S 768 mmHg 82%

    übermorgen, 24 Februar, Samstag

    Zeit Temperatur Niederschläge Wind Luftdruck Luftfeuchtigkeit
    00:00 -4°C° 0 mm 5 m/S 768 mmHg 80%
    01:00 -4°C° 0 mm 5 m/S 769 mmHg 77%
    02:00 -4°C° 0 mm 6 m/S 769 mmHg 76%
    03:00 -5°C° 0 mm 6 m/S 769 mmHg 75%
    04:00 -6°C° 0 mm 7 m/S 770 mmHg 74%
    05:00 -7°C° 0 mm 7 m/S 770 mmHg 72%
    06:00 -7°C° 0 mm 7 m/S 770 mmHg 70%
    07:00 -8°C° 0 mm 7 m/S 771 mmHg 68%
    08:00 -7°C° 0 mm 7 m/S 771 mmHg 64%
    09:00 -7°C° 0 mm 7 m/S 772 mmHg 61%
    10:00 -6°C° 0 mm 7 m/S 772 mmHg 58%
    11:00 -6°C° 0 mm 7 m/S 772 mmHg 55%
    12:00 -4°C° 0 mm 7 m/S 772 mmHg 53%
    13:00 -4°C° 0 mm 6 m/S 772 mmHg 50%
    14:00 -4°C° 0 mm 6 m/S 772 mmHg 50%
    15:00 -4°C° 0 mm 6 m/S 772 mmHg 50%
    16:00 -4°C° 0 mm 6 m/S 772 mmHg 50%
    17:00 -5°C° 0 mm 6 m/S 772 mmHg 53%
    18:00 -6°C° 0 mm 6 m/S 773 mmHg 56%
    19:00 -6°C° 0 mm 6 m/S 773 mmHg 60%
    20:00 -6°C° 0 mm 5 m/S 773 mmHg 60%
    21:00 -7°C° 0 mm 5 m/S 773 mmHg 61%
    22:00 -7°C° 0 mm 5 m/S 773 mmHg 61%
    23:00 -7°C° 0 mm 5 m/S 773 mmHg 63%

    25 Februar, Sonntag

    Zeit Temperatur Niederschläge Wind Luftdruck Luftfeuchtigkeit
    00:00 -7°C° 0 mm 5 m/S 773 mmHg 64%
    01:00 -7°C° 0 mm 4 m/S 773 mmHg 66%
    02:00 -7°C° 0 mm 4 m/S 773 mmHg 67%
    03:00 -8°C° 0 mm 4 m/S 773 mmHg 68%
    04:00 -8°C° 0 mm 4 m/S 773 mmHg 69%
    05:00 -8°C° 0 mm 4 m/S 773 mmHg 69%
    06:00 -8°C° 0 mm 4 m/S 773 mmHg 69%
    07:00 -8°C° 0 mm 4 m/S 773 mmHg 69%
    08:00 -8°C° 0 mm 4 m/S 773 mmHg 65%
    09:00 -7°C° 0 mm 5 m/S 773 mmHg 60%
    10:00 -7°C° 0 mm 5 m/S 773 mmHg 55%
    11:00 -6°C° 0 mm 5 m/S 773 mmHg 52%
    12:00 -6°C° 0 mm 5 m/S 773 mmHg 50%
    13:00 -4°C° 0 mm 4 m/S 772 mmHg 47%
    14:00 -5°C° 0 mm 5 m/S 772 mmHg 47%
    15:00 -5°C° 0 mm 5 m/S 772 mmHg 47%
    16:00 -5°C° 0 mm 5 m/S 772 mmHg 47%
    17:00 -6°C° 0 mm 5 m/S 772 mmHg 50%
    18:00 -7°C° 0 mm 5 m/S 772 mmHg 54%
    19:00 -8°C° 0 mm 6 m/S 772 mmHg 57%
    20:00 -8°C° 0 mm 6 m/S 772 mmHg 58%
    21:00 -8°C° 0 mm 6 m/S 772 mmHg 59%
    22:00 -9°C° 0 mm 6 m/S 772 mmHg 60%
    23:00 -9°C° 0 mm 6 m/S 772 mmHg 63%

    26 Februar, Montag

    Zeit Temperatur Niederschläge Wind Luftdruck Luftfeuchtigkeit
    00:00 -9°C° 0 mm 6 m/S 772 mmHg 65%
    01:00 -10°C° 0 mm 6 m/S 772 mmHg 67%
    02:00 -10°C° 0 mm 6 m/S 772 mmHg 68%
    03:00 -11°C° 0 mm 7 m/S 772 mmHg 68%
    04:00 -11°C° 0 mm 7 m/S 772 mmHg 69%
    05:00 -12°C° 0 mm 7 m/S 771 mmHg 69%
    06:00 -12°C° 0 mm 7 m/S 771 mmHg 69%
    07:00 -12°C° 0 mm 7 m/S 771 mmHg 68%
    08:00 -11°C° 0 mm 7 m/S 771 mmHg 64%
    09:00 -9°C° 0 mm 7 m/S 771 mmHg 60%
    10:00 -10°C° 0 mm 8 m/S 771 mmHg 56%
    11:00 -8°C° 0 mm 8 m/S 771 mmHg 52%
    12:00 -7°C° 0 mm 7 m/S 771 mmHg 48%
    13:00 -6°C° 0 mm 7 m/S 770 mmHg 44%
    14:00 -7°C° 0 mm 7 m/S 770 mmHg 46%
    15:00 -7°C° 0 mm 7 m/S 769 mmHg 47%
    16:00 -7°C° 0 mm 7 m/S 769 mmHg 48%
    17:00 -7°C° 0 mm 7 m/S 769 mmHg 52%
    18:00 -8°C° 0 mm 7 m/S 768 mmHg 56%
    19:00 -8°C° 0 mm 7 m/S 768 mmHg 59%
    20:00 -10°C° 0 mm 8 m/S 768 mmHg 59%
    21:00 -10°C° 0 mm 8 m/S 768 mmHg 60%
    22:00 -10°C° 0 mm 8 m/S 768 mmHg 60%
    23:00 -10°C° 0 mm 8 m/S 767 mmHg 60%

    27 Februar, Dienstag

    Zeit Temperatur Niederschläge Wind Luftdruck Luftfeuchtigkeit
    00:00 -11°C° 0 mm 8 m/S 767 mmHg 61%
    01:00 -11°C° 0 mm 8 m/S 767 mmHg 61%
    02:00 -11°C° 0 mm 8 m/S 767 mmHg 62%
    03:00 -11°C° 0 mm 8 m/S 766 mmHg 63%
    04:00 -11°C° 0 mm 8 m/S 766 mmHg 64%
    05:00 -12°C° 0 mm 7 m/S 766 mmHg 64%
    06:00 -12°C° 0 mm 7 m/S 765 mmHg 65%
    07:00 -12°C° 0 mm 7 m/S 765 mmHg 66%
    08:00 -11°C° 0 mm 8 m/S 765 mmHg 62%
    09:00 -10°C° 0 mm 8 m/S 765 mmHg 58%
    10:00 -10°C° 0 mm 8 m/S 765 mmHg 54%
    11:00 -8°C° 0,1 mm 8 m/S 765 mmHg 50%
    12:00 -8°C° 0,1 mm 7 m/S 765 mmHg 45%
    13:00 -7°C° 0,1 mm 7 m/S 764 mmHg 41%
    14:00 -7°C° 0,1 mm 7 m/S 764 mmHg 41%
    15:00 -7°C° 0,1 mm 7 m/S 764 mmHg 40%
    16:00 -7°C° 0,1 mm 7 m/S 764 mmHg 40%
    17:00 -8°C° 0,1 mm 7 m/S 764 mmHg 45%
    18:00 -8°C° 0,1 mm 7 m/S 764 mmHg 50%
    19:00 -9°C° 0,1 mm 7 m/S 764 mmHg 55%
    20:00 -9°C° 0,1 mm 7 m/S 764 mmHg 57%
    21:00 -9°C° 0,1 mm 7 m/S 764 mmHg 59%
    22:00 -10°C° 0,1 mm 6 m/S 765 mmHg 61%
    23:00 -10°C° 0,2 mm 6 m/S 765 mmHg 66%
    Mehr zeigen